Weather History for Sault Ste Marie, MI

Change the Weather History Date:

Tuesday, September 27, 2011

  Actual Average Record
Temperature  
Mean Temperature 60 °F 53 °F  
Max Temperature 64 °F 62 °F 84 °F (1891)
Min Temperature 55 °F 44 °F 26 °F (1989)
Degree Days  
Heating Degree Days 5 12  
Month to date heating degree days 175 215  
Since 1 July heating degree days 208 362  
Cooling Degree Days 0 0  
Month to date cooling degree days 24 15  
Year to date cooling degree days 252 193  
Growing Degree Days 10 (Base 50)    
Moisture  
Dew Point 57 °F    
Average Humidity 89    
Maximum Humidity 93    
Minimum Humidity 84    
Precipitation  
Precipitation 0.47 in 0.13 in 1.97 in (1996)
Month to date precipitation 4.35 3.44  
Year to date precipitation 27.79 22.61  
Sea Level Pressure  
Sea Level Pressure 29.85 in    
Wind  
Wind Speed 5 mph (East)    
Max Wind Speed 10 mph    
Max Gust Speed 15 mph    
Visibility 7 miles    
Events Fog , Rain    
T = Trace of Precipitation, MM = Missing Value Source: NWS Daily Summary

Daily Weather History Graph

Daily Weather History Graph

Search for Another Location

Airport:

Trip Planner

Search our weather history database for the weather conditions in past years. The results will help you decide how hot, cold, wet, or windy it might be!

Date:

Astronomy

Sep. 27, 2011 Rise Set
Actual Time 7:30 AM EDT 7:25 PM EDT
Civil Twilight 7:00 AM EDT 7:55 PM EDT
Nautical Twilight 6:25 AM EDT 8:30 PM EDT
Astronomical Twilight 5:49 AM EDT 9:06 PM EDT
Moon 7:48 AM EDT (9/27) 7:09 PM EDT (9/27)
Length of Visible Light 12h 55m
Length of Day
11h 55m
New Moon, 0% of the Moon is Illuminated
Sep 27
New Moon
Oct 3
First Quarter
Oct 11
Full
Oct 19
Last Quarter
Oct 26
New

Hourly Weather History & Observations

Time (EDT) Temp. Dew Point Humidity Pressure Visibility Wind Dir Wind Speed Gust Speed Precip Events Conditions
12:55 AM 64.0 °F 55.9 °F 75% 29.83 in 10.0 mi SE 4.6 mph - 0.03 in   Overcast
1:44 AM 60.8 °F 55.4 °F 82% 29.84 in 2.0 mi ESE 4.6 mph - 0.10 in Rain Rain
1:55 AM 61.0 °F 55.9 °F 83% 29.84 in 4.0 mi East 5.8 mph - 0.14 in Rain Light Rain
2:55 AM 60.1 °F 55.9 °F 86% 29.81 in 10.0 mi NE 6.9 mph - 0.04 in Rain Light Rain
3:00 AM - - N/A% - - North - - N/A   Unknown
3:48 AM 60.8 °F 55.4 °F 82% 29.82 in 10.0 mi ENE 5.8 mph - 0.02 in Rain Light Rain
3:55 AM 61.0 °F 55.9 °F 83% 29.81 in 10.0 mi East 4.6 mph - 0.03 in Rain Light Rain
4:03 AM 60.8 °F 55.4 °F 82% 29.82 in 10.0 mi East 4.6 mph - 0.00 in Rain Light Rain
4:55 AM 61.0 °F 57.0 °F 87% 29.83 in 8.0 mi ENE 8.1 mph - 0.02 in Rain Light Rain
5:07 AM 60.8 °F 57.2 °F 88% 29.83 in 9.0 mi East 6.9 mph - 0.01 in Rain Light Rain
5:55 AM 61.0 °F 57.0 °F 87% 29.83 in 10.0 mi East 4.6 mph - 0.01 in   Overcast
6:03 AM 60.8 °F 57.2 °F 88% 29.84 in 10.0 mi East 4.6 mph - N/A   Overcast
6:50 AM 60.8 °F 57.2 °F 88% 29.84 in 10.0 mi ENE 5.8 mph - 0.00 in Rain Light Rain
6:55 AM 60.1 °F 57.9 °F 93% 29.83 in 10.0 mi ENE 5.8 mph - 0.00 in Rain Light Rain
7:33 AM 60.8 °F 57.2 °F 88% 29.84 in 10.0 mi East 5.8 mph - 0.00 in   Overcast
7:55 AM 60.1 °F 57.9 °F 93% 29.84 in 7.0 mi ENE 4.6 mph - 0.00 in Rain Light Rain
8:55 AM 60.1 °F 57.0 °F 90% 29.85 in 8.0 mi East 4.6 mph - 0.02 in   Overcast
9:55 AM 61.0 °F 57.9 °F 90% 29.85 in 10.0 mi East 4.6 mph - 0.01 in   Overcast
10:11 AM 60.8 °F 57.2 °F 88% 29.85 in 9.0 mi ENE 4.6 mph - 0.00 in Rain Light Rain
10:42 AM 60.8 °F 57.2 °F 88% 29.86 in 7.0 mi East 6.9 mph - 0.00 in Rain Light Rain
10:55 AM 60.1 °F 57.0 °F 90% 29.85 in 1.8 mi East 6.9 mph - 0.03 in Rain Heavy Rain
11:04 AM 60.8 °F 57.2 °F 88% 29.86 in 3.0 mi East 5.8 mph - 0.03 in Rain Light Rain
11:55 AM 61.0 °F 57.9 °F 90% 29.85 in 10.0 mi East 8.1 mph - 0.04 in   Overcast
12:55 PM 61.0 °F 57.0 °F 87% 29.85 in 10.0 mi East 5.8 mph - N/A   Overcast
1:55 PM 61.0 °F 57.9 °F 90% 29.84 in 6.0 mi Variable 5.8 mph - 0.02 in Rain Light Rain
2:55 PM 61.0 °F 57.9 °F 90% 29.84 in 5.0 mi ESE 4.6 mph - 0.07 in Rain Light Rain
3:55 PM 61.0 °F 57.9 °F 90% 29.85 in 8.0 mi ESE 5.8 mph - 0.04 in Rain Light Rain
4:55 PM 60.1 °F 57.9 °F 93% 29.85 in 3.0 mi ESE 5.8 mph - 0.00 in   Overcast
5:55 PM 61.0 °F 57.9 °F 90% 29.86 in 10.0 mi SE 4.6 mph - N/A   Mostly Cloudy
6:17 PM 62.6 °F 57.2 °F 82% 29.87 in 10.0 mi East 3.5 mph - N/A   Overcast
6:40 PM 60.8 °F 57.2 °F 88% 29.86 in 10.0 mi East 5.8 mph - N/A   Scattered Clouds
6:55 PM 61.0 °F 57.0 °F 87% 29.86 in 10.0 mi East 4.6 mph - N/A   Clear
7:30 PM 59.0 °F 55.4 °F 88% 29.87 in 9.0 mi Calm Calm - N/A   Partly Cloudy
7:43 PM 60.8 °F 57.2 °F 88% 29.88 in 9.0 mi Calm Calm - N/A   Mostly Cloudy
7:55 PM 60.1 °F 57.0 °F 90% 29.88 in 9.0 mi Calm Calm - N/A   Mostly Cloudy
8:11 PM 59.0 °F 55.4 °F 88% 29.88 in 8.0 mi ESE 3.5 mph - N/A   Partly Cloudy
8:55 PM 57.0 °F 55.0 °F 93% 29.88 in 7.0 mi Calm Calm - N/A   Partly Cloudy
9:23 PM 57.2 °F 55.4 °F 94% 29.89 in 2.5 mi Calm Calm - N/A   Mostly Cloudy
9:27 PM 57.2 °F 55.4 °F 94% 29.89 in 0.8 mi Calm Calm - N/A   Mostly Cloudy
9:34 PM 57.2 °F 55.4 °F 94% 29.89 in 0.5 mi Calm Calm - N/A Fog Fog
9:55 PM 57.0 °F 55.0 °F 93% 29.89 in 0.2 mi SE 3.5 mph - N/A Fog Fog
10:55 PM 55.0 °F 54.0 °F 96% 29.88 in 0.2 mi ESE 3.5 mph - N/A Fog Fog
11:55 PM 55.0 °F 54.0 °F 96% 29.88 in 0.2 mi Calm Calm - N/A Fog Fog